Wind_Speed
3 3 3 3 3 3 3 3 3 2 2 2 2 2 1 1 2 2 3 3 3 2 2 3 2 3 3 3 3 3 3 3 3 3 3 4 4 4 4 6 7 7 8 8 8 7 7 8 7
3 3 3 3 3 3 2 2 3 3 2 2 2 2 2 1 1 1 2 3 3 2 3 3 3 3 3 3 3 4 4 4 4 4 5 5 5 4 5 6 7 7 8 8 8 8 8 9 8
3 3 3 3 3 3 3 2 3 3 3 2 2 2 2 2 2 2 2 2 2 2 2 2 3 4 4 4 4 4 4 4 5 5 5 5 5 5 5 6 7 7 7 7 8 9 10 10 9
2 3 3 4 3 4 3 1 2 3 3 3 3 2 3 3 2 2 2 2 2 2 2 2 3 4 4 4 4 4 4 5 6 6 6 5 5 6 5 6 6 7 7 7 8 9 10 10 10
2 3 4 4 4 4 3 2 2 3 2 2 2 3 3 3 3 2 2 2 2 2 2 2 3 3 3 4 4 5 5 6 6 6 6 6 6 6 6 6 6 7 8 8 8 9 9 10 11
3 3 4 4 4 3 3 2 2 2 3 2 2 2 3 3 3 3 3 2 1 1 1 2 2 3 3 3 4 5 5 6 6 6 5 5 6 6 5 6 7 7 7 7 7 9 9 9 10
4 4 4 4 3 3 3 2 2 2 2 2 1 2 2 2 2 2 2 2 1 2 2 2 2 3 3 3 4 4 4 5 5 5 4 4 5 5 5 6 7 7 7 7 7 8 8 8 8
4 4 4 4 3 4 4 3 3 3 2 1 1 1 2 1 1 1 1 2 2 2 2 2 3 3 3 3 4 4 4 4 4 4 4 4 5 4 4 5 6 6 6 7 8 8 8 9 9
4 4 4 4 4 3 3 3 3 2 3 2 2 2 2 2 2 2 2 3 3 3 3 3 3 3 3 3 3 3 3 3 3 4 4 4 4 4 4 5 5 6 6 7 7 7 9 9 9
4 4 4 4 4 3 3 3 3 3 3 3 3 3 3 3 2 2 2 3 3 3 3 3 3 4 3 3 3 3 3 3 4 4 4 3 4 4 4 5 5 5 5 6 7 7 7 8 8
5 5 4 4 4 4 4 3 3 4 4 4 4 4 4 4 4 3 3 3 3 3 3 3 3 4 4 4 3 3 3 3 4 4 4 4 4 4 5 5 5 5 6 6 6 7 7 7 7
5 5 5 4 4 4 4 3 4 4 5 6 5 5 4 4 4 4 3 4 3 3 3 3 4 4 5 5 4 4 4 5 5 4 4 5 6 6 6 6 6 6 6 6 6 6 8 8 7
5 4 5 5 5 5 5 5 5 5 5 6 6 5 5 4 4 4 4 4 4 3 3 3 4 5 6 6 5 5 5 5 4 4 5 5 6 6 7 7 7 7 7 7 7 7 8 8 8
5 5 5 5 5 6 6 6 5 5 6 6 6 6 5 5 5 5 4 4 4 4 4 4 4 5 6 6 6 6 5 4 4 5 5 6 6 7 7 8 8 8 9 9 9 9 9 9 9
6 6 6 5 6 6 6 7 6 6 6 6 6 6 7 6 6 5 5 4 5 5 5 4 4 5 5 5 5 5 5 5 5 5 6 6 7 8 8 8 9 9 10 10 10 10 11 11 11
7 7 7 6 6 6 7 7 7 7 6 6 6 6 7 6 6 5 5 5 5 5 5 5 4 5 5 4 5 5 6 6 6 6 7 7 8 8 8 9 9 10 10 11 11 11 11 11 12
8 7 7 7 7 6 7 7 8 8 8 7 7 7 7 7 6 6 5 5 5 6 6 6 6 5 5 5 5 5 6 6 7 7 8 8 8 8 9 9 10 10 10 10 11 11 12 12 13
9 8 8 7 7 8 8 7 7 8 8 9 9 9 9 8 8 7 7 6 6 6 7 7 6 6 6 6 6 6 6 6 7 8 9 9 9 9 9 10 10 10 11 11 11 12 12 12 13
11 10 9 9 9 9 9 8 8 8 8 9 10 10 9 9 9 9 8 8 8 8 8 7 7 7 7 7 7 7 7 7 8 9 10 10 10 10 10 10 10 11 11 12 12 13 13 13 13
12 12 11 11 10 11 10 9 9 9 9 9 10 10 10 10 10 9 9 10 9 9 9 8 8 8 9 8 8 8 8 8 9 10 10 11 11 11 11 11 11 11 12 12 13 13 14 14 14
13 13 11 11 11 11 10 10 9 10 10 10 10 11 10 11 11 11 11 10 10 10 10 9 9 9 9 9 9 9 9 9 10 10 11 11 11 11 12 12 12 12 12 13 13 13 13 13 14
12 12 12 11 11 11 11 10 10 10 10 10 10 10 11 11 11 12 12 12 11 11 11 11 10 10 10 10 10 10 11 10 10 10 11 11 12 12 13 13 13 13 13 13 14 13 13 14 14
13 13 14 13 13 12 12 12 10 10 10 10 10 10 11 12 12 13 13 12 12 12 12 12 11 11 11 11 12 12 12 12 12 12 12 12 12 13 13 13 13 14 14 14 14 14 14 14 15
14 14 14 14 14 14 13 13 12 11 11 11 11 10 11 12 13 14 14 13 13 14 14 13 13 13 13 13 13 13 13 13 13 13 13 13 14 14 13 13 14 14 14 14 15 15 15 15 15
15 15 15 15 15 14 14 15 13 12 12 12 12 11 11 12 13 14 14 15 14 14 14 15 15 15 14 14 15 15 15 15 14 15 15 15 15 15 15 14 14 14 15 15 15 15 16 16 16
16 16 16 17 17 16 15 15 14 13 13 13 13 13 13 13 13 15 16 16 16 16 15 15 15 16 16 16 16 16 16 16 16 16 16 16 16 16 15 15 15 15 15 15 16 16 16 16 16
16 16 16 17 18 18 17 16 14 14 14 14 14 14 14 14 15 15 16 17 17 18 17 16 16 16 17 18 18 18 18 17 17 17 17 16 16 16 16 16 15 16 16 16 16 16 16 17 17
16 16 17 18 18 18 17 17 14 13 15 16 16 15 16 16 16 17 17 18 18 18 18 18 17 18 17 17 17 18 18 18 18 17 17 16 16 16 17 17 17 17 17 17 17 17 17 18 18
17 17 18 19 20 19 18 17 14 15 15 16 16 17 17 18 18 18 18 18 19 19 18 19 18 18 18 19 18 19 18 18 18 17 17 17 17 18 18 17 17 17 17 18 18 18 18 19 18
18 18 19 20 20 20 21 18 16 16 16 16 16 17 18 18 18 19 19 19 19 19 19 20 20 20 19 20 20 20 19 19 19 17 17 18 18 18 18 18 18 18 18 18 18 19 19 19 18
Wind_Direction
206 198 199 211 212 216 218 205 200 190 191 188 203 219 234 222 198 207 217 225 232 238 246 241 228 245 254 250 251 259 268 278 278 280 276 272 272 271 255 230 222 226 228 229 231 234 234 232 234
209 202 205 220 217 218 216 205 200 200 199 209 219 222 226 247 220 211 219 226 239 244 251 242 230 241 254 256 255 259 266 274 277 280 277 277 280 277 259 240 235 238 236 235 239 239 240 240 239
220 213 213 225 224 228 218 224 214 214 207 217 238 232 219 236 250 250 245 242 252 261 259 244 242 245 250 254 253 258 265 270 276 282 279 278 279 271 260 247 243 242 237 240 242 242 242 243 243
232 222 225 231 224 224 227 224 217 219 215 218 233 239 227 229 236 260 269 263 259 264 262 258 250 248 248 249 252 255 266 274 280 281 281 274 271 269 265 260 252 245 244 246 244 245 244 244 246
247 243 239 241 229 219 225 232 207 201 203 216 228 241 236 229 231 247 270 272 265 263 272 267 255 248 252 250 250 260 268 275 281 281 281 274 268 266 270 265 260 256 254 250 248 247 246 245 247
242 246 234 235 227 229 235 222 205 206 208 218 248 257 247 243 234 236 251 263 267 267 275 277 269 259 261 259 259 263 266 272 277 280 283 277 272 266 268 273 270 267 258 258 251 247 249 248 249
246 248 242 239 231 226 221 209 216 197 207 216 251 269 255 234 238 240 259 262 268 281 281 277 269 266 267 272 270 267 268 270 273 278 282 278 273 267 269 275 275 270 255 255 252 249 249 253 256
250 250 249 245 238 233 242 240 230 205 209 223 244 279 275 235 221 235 259 267 264 269 267 271 272 272 270 277 275 269 269 272 274 277 272 273 274 269 271 275 273 270 259 255 256 256 251 253 259
251 251 260 258 248 244 253 264 253 236 224 227 245 263 268 249 243 244 253 265 265 266 264 262 267 272 270 273 278 273 271 269 268 273 266 269 270 270 269 266 266 266 256 252 252 254 250 254 261
247 250 259 257 250 243 250 260 248 245 237 238 248 258 259 251 253 250 258 265 266 267 270 264 270 278 274 271 273 283 287 277 271 269 266 265 264 265 266 269 274 273 260 261 249 251 254 258 261
249 249 252 248 242 240 247 250 244 247 247 252 257 256 259 256 248 245 251 260 261 268 273 269 267 268 268 270 271 280 286 283 280 275 270 271 268 266 270 275 278 277 275 275 261 252 255 259 262
255 255 249 240 240 243 244 246 252 245 243 253 256 255 256 250 243 243 247 251 251 260 270 275 268 267 268 270 273 279 284 284 282 278 274 273 272 274 277 272 277 277 279 273 268 266 267 267 262
258 253 247 244 245 251 249 253 255 249 243 248 253 255 246 237 245 249 250 248 249 253 261 263 262 262 264 265 266 272 278 275 274 274 274 275 279 278 280 277 276 276 276 275 275 272 273 273 272
264 257 251 246 248 258 260 260 256 248 248 252 252 248 240 233 236 250 254 250 253 259 266 271 267 266 266 267 268 271 269 268 269 270 274 279 280 279 278 277 278 280 281 279 278 276 274 275 275
256 256 254 253 250 253 259 259 261 256 250 250 251 248 241 235 237 245 250 252 255 258 260 263 264 267 269 269 265 262 263 266 266 270 276 279 279 280 281 281 280 279 278 277 277 276 276 275 275
255 260 261 261 255 252 258 258 255 253 251 246 250 251 245 236 237 243 249 254 259 255 254 261 271 277 274 265 261 264 268 271 273 275 279 280 281 283 285 285 283 280 277 275 276 276 277 278 278
258 261 265 269 264 257 256 254 251 254 254 249 248 248 246 238 237 244 252 257 259 260 259 265 270 275 270 270 272 274 273 275 278 280 281 282 282 284 285 284 283 283 281 280 279 278 278 279 279
262 262 264 266 263 256 254 255 257 257 257 251 249 247 243 243 242 247 253 259 262 261 262 266 268 270 271 274 280 284 282 280 282 286 286 284 284 284 284 285 286 286 285 284 282 280 281 282 282
257 258 258 258 259 258 259 259 263 262 257 251 249 247 244 246 250 252 256 261 262 262 262 261 265 271 272 272 278 285 289 290 289 289 287 285 286 286 284 287 287 287 287 286 284 283 283 283 282
257 258 258 262 262 263 264 264 263 263 260 253 249 246 242 247 252 253 255 258 260 261 261 261 262 268 272 272 274 280 285 291 292 292 288 286 286 286 285 287 287 289 291 289 286 284 283 282 281
258 258 257 260 260 262 265 268 266 266 264 261 256 249 246 246 248 251 254 256 262 261 262 264 265 268 271 272 273 276 281 287 292 293 290 289 291 291 289 288 288 288 290 291 289 287 283 282 281
258 259 257 253 253 257 264 271 268 267 265 267 264 253 248 248 249 251 252 254 257 261 264 263 263 263 268 271 272 274 279 284 290 294 294 295 293 292 290 289 290 291 291 291 289 286 284 284 283
256 258 256 253 251 256 261 267 265 263 260 260 260 257 251 252 253 255 255 254 256 260 262 260 259 259 262 267 270 272 276 282 287 290 292 293 293 292 290 288 288 289 291 292 290 288 287 286 285
255 253 253 251 252 256 259 262 261 258 260 259 257 259 258 256 255 254 255 255 257 259 260 260 260 261 263 265 269 273 278 281 284 286 288 291 292 290 288 287 286 286 287 289 289 289 288 288 286
252 251 250 252 252 255 257 257 256 254 257 259 259 260 262 261 258 256 257 257 257 259 259 260 263 265 266 268 270 273 276 279 282 283 283 286 288 288 288 285 285 285 287 288 288 288 288 288 286
253 254 254 254 256 256 253 257 259 260 262 262 263 263 264 264 264 261 260 260 257 258 260 262 265 267 269 272 273 273 274 277 281 281 281 284 285 286 287 286 284 286 288 288 287 287 288 288 287
253 254 255 256 257 258 256 258 262 263 262 263 265 265 264 264 265 263 260 260 260 261 262 264 266 268 271 274 274 272 272 275 278 279 280 283 283 284 286 286 285 286 288 288 288 288 288 288 288
252 252 253 255 257 259 260 257 259 259 259 263 266 266 263 264 265 264 261 260 259 259 261 264 267 269 273 276 276 276 274 276 276 277 278 280 282 283 285 286 285 287 287 287 287 286 286 286 287
255 251 253 256 255 257 260 258 262 263 262 264 265 266 266 266 266 267 265 261 257 257 258 262 266 269 270 273 273 274 274 276 275 275 277 279 281 282 282 284 285 286 286 286 286 287 287 287 286
254 252 252 255 258 258 259 257 260 262 261 263 267 268 267 268 268 268 267 266 262 260 260 261 263 266 269 271 271 271 273 273 273 273 275 278 279 280 281 282 284 286 286 285 286 287 289 287 285
Height
5865 5865 5866 5867 5868 5867 5867 5867 5867 5867 5867 5867 5867 5868 5868 5869 5870 5872 5869 5868 5869 5869 5869 5869 5869 5870 5870 5870 5871 5871 5871 5871 5871 5871 5871 5870 5870 5870 5870 5870 5871 5871 5872 5872 5873 5873 5873 5873 5874
5864 5865 5866 5867 5866 5866 5867 5866 5866 5867 5867 5867 5867 5868 5868 5868 5868 5868 5867 5868 5868 5868 5868 5868 5869 5869 5869 5870 5870 5870 5870 5870 5870 5870 5870 5870 5870 5870 5870 5870 5870 5871 5871 5871 5872 5872 5872 5872 5873
5864 5865 5866 5866 5865 5866 5866 5866 5866 5866 5866 5866 5867 5867 5867 5867 5867 5867 5867 5867 5867 5867 5868 5868 5868 5868 5869 5869 5869 5869 5870 5870 5870 5869 5869 5869 5869 5869 5869 5869 5869 5870 5870 5870 5870 5871 5871 5871 5872
5864 5865 5865 5865 5865 5865 5865 5865 5865 5865 5865 5866 5866 5866 5866 5867 5867 5866 5866 5866 5867 5867 5867 5867 5867 5868 5868 5868 5868 5869 5869 5869 5869 5868 5868 5868 5868 5868 5868 5868 5868 5869 5869 5869 5869 5869 5869 5870 5870
5863 5864 5865 5864 5864 5864 5864 5864 5864 5864 5865 5865 5865 5865 5866 5866 5866 5865 5865 5866 5866 5866 5866 5866 5867 5867 5867 5867 5867 5868 5868 5868 5868 5868 5867 5867 5867 5868 5867 5867 5867 5867 5867 5867 5867 5868 5868 5868 5868
5864 5864 5864 5863 5863 5863 5863 5864 5864 5864 5864 5864 5865 5865 5865 5865 5865 5865 5865 5865 5865 5865 5866 5866 5866 5866 5866 5866 5867 5867 5867 5867 5867 5867 5867 5866 5866 5866 5866 5866 5866 5866 5865 5866 5866 5866 5866 5866 5866
5863 5863 5862 5862 5863 5862 5862 5863 5863 5863 5863 5864 5864 5864 5863 5864 5864 5864 5864 5864 5864 5865 5865 5865 5865 5865 5865 5866 5866 5866 5866 5866 5866 5865 5865 5865 5865 5865 5865 5865 5865 5864 5864 5864 5864 5864 5864 5864 5864
5862 5863 5862 5861 5861 5862 5862 5861 5862 5862 5863 5863 5863 5863 5863 5863 5863 5863 5863 5863 5863 5864 5864 5864 5864 5865 5865 5865 5865 5865 5865 5865 5865 5864 5864 5864 5864 5864 5864 5864 5864 5863 5862 5862 5863 5863 5863 5862 5862
5861 5862 5861 5861 5860 5861 5861 5861 5861 5861 5862 5862 5862 5862 5862 5862 5862 5863 5863 5863 5863 5863 5863 5863 5864 5864 5864 5864 5864 5864 5864 5863 5863 5863 5864 5863 5863 5863 5863 5863 5862 5862 5861 5861 5861 5861 5861 5861 5860
5860 5860 5860 5860 5860 5860 5860 5860 5860 5860 5860 5861 5861 5861 5861 5861 5861 5862 5862 5862 5862 5862 5862 5862 5863 5863 5863 5863 5863 5863 5863 5862 5862 5862 5862 5862 5862 5862 5862 5862 5861 5861 5860 5860 5859 5859 5859 5859 5859
5859 5859 5859 5858 5858 5858 5859 5859 5859 5859 5859 5859 5860 5860 5860 5860 5860 5860 5861 5861 5861 5861 5861 5861 5861 5862 5862 5862 5862 5862 5862 5861 5861 5861 5861 5861 5861 5861 5861 5861 5860 5860 5859 5859 5858 5858 5857 5857 5857
5857 5857 5857 5857 5857 5857 5857 5858 5858 5858 5858 5858 5858 5858 5858 5858 5859 5859 5859 5859 5860 5860 5860 5860 5860 5860 5860 5860 5860 5860 5860 5860 5860 5860 5860 5860 5860 5860 5859 5859 5859 5858 5858 5857 5857 5856 5856 5856 5856
5856 5856 5855 5856 5855 5855 5856 5856 5856 5856 5856 5856 5856 5856 5857 5857 5857 5857 5857 5858 5858 5859 5859 5859 5859 5859 5859 5859 5859 5859 5859 5859 5858 5858 5858 5858 5858 5858 5857 5857 5857 5856 5856 5855 5855 5855 5855 5854 5854
5855 5854 5854 5854 5854 5854 5854 5854 5854 5854 5854 5854 5854 5855 5855 5855 5856 5856 5856 5856 5857 5857 5857 5858 5858 5858 5858 5858 5857 5857 5857 5857 5857 5857 5856 5856 5856 5856 5855 5855 5855 5854 5854 5853 5853 5852 5852 5852 5851
5853 5853 5853 5852 5852 5852 5852 5853 5852 5852 5852 5852 5852 5852 5853 5854 5854 5854 5855 5855 5855 5856 5856 5856 5856 5856 5856 5856 5856 5856 5855 5855 5855 5855 5855 5854 5854 5854 5853 5853 5852 5852 5851 5851 5851 5850 5850 5850 5849
5851 5851 5851 5851 5850 5850 5852 5851 5850 5850 5850 5850 5850 5850 5851 5852 5852 5853 5853 5854 5854 5854 5854 5854 5854 5854 5854 5854 5854 5854 5854 5853 5853 5853 5853 5852 5852 5851 5851 5850 5850 5849 5849 5848 5848 5847 5847 5846 5846
5849 5849 5849 5849 5848 5848 5848 5848 5848 5848 5847 5848 5848 5849 5849 5850 5851 5851 5851 5852 5852 5852 5852 5853 5853 5852 5852 5852 5852 5852 5852 5851 5851 5851 5851 5850 5850 5849 5849 5848 5847 5847 5846 5845 5845 5844 5844 5843 5843
5846 5846 5846 5846 5846 5846 5845 5845 5846 5845 5845 5845 5846 5846 5847 5848 5849 5849 5849 5850 5850 5850 5850 5851 5850 5850 5850 5850 5850 5850 5850 5849 5849 5849 5848 5847 5847 5846 5846 5845 5844 5843 5843 5842 5842 5841 5840 5840 5839
5843 5843 5843 5843 5843 5843 5842 5842 5843 5842 5842 5842 5843 5843 5844 5845 5846 5847 5847 5848 5848 5848 5848 5848 5848 5848 5848 5848 5848 5848 5848 5847 5847 5846 5845 5845 5844 5844 5843 5842 5841 5840 5840 5839 5838 5837 5836 5836 5835
5840 5840 5840 5840 5840 5839 5839 5839 5839 5839 5839 5839 5839 5840 5841 5842 5843 5844 5844 5845 5846 5846 5846 5846 5846 5846 5846 5846 5846 5845 5845 5845 5845 5844 5843 5842 5841 5841 5840 5839 5838 5837 5836 5835 5834 5833 5832 5832 5831
5836 5836 5837 5837 5836 5836 5836 5836 5837 5836 5836 5836 5836 5837 5838 5839 5840 5840 5841 5842 5843 5843 5843 5843 5843 5843 5843 5843 5843 5843 5843 5842 5842 5841 5840 5839 5838 5837 5836 5835 5835 5834 5833 5832 5830 5829 5828 5828 5827
5832 5833 5833 5833 5833 5833 5834 5833 5834 5833 5833 5833 5833 5834 5834 5835 5836 5837 5838 5838 5839 5839 5839 5840 5840 5840 5840 5840 5840 5840 5840 5840 5839 5838 5837 5836 5835 5834 5833 5832 5831 5830 5829 5828 5826 5825 5824 5824 5823
5829 5829 5829 5829 5829 5830 5830 5830 5831 5830 5830 5830 5830 5830 5831 5832 5833 5833 5834 5835 5835 5836 5836 5836 5836 5837 5837 5837 5837 5837 5837 5836 5836 5835 5834 5833 5832 5831 5830 5829 5828 5826 5825 5824 5823 5821 5820 5820 5819
5824 5825 5824 5824 5825 5826 5826 5826 5826 5826 5827 5827 5827 5827 5827 5828 5829 5829 5830 5831 5831 5832 5832 5832 5833 5833 5834 5834 5833 5833 5833 5832 5832 5831 5830 5829 5828 5827 5826 5825 5824 5823 5821 5820 5819 5817 5816 5815 5815
5820 5821 5821 5820 5820 5821 5821 5821 5822 5822 5823 5823 5823 5823 5824 5824 5825 5825 5826 5826 5827 5827 5828 5829 5829 5829 5829 5829 5829 5829 5829 5828 5828 5827 5826 5825 5824 5823 5822 5821 5820 5819 5817 5816 5815 5813 5812 5811 5810
5815 5816 5817 5816 5816 5816 5816 5816 5818 5818 5818 5818 5819 5819 5819 5820 5820 5821 5822 5822 5823 5823 5824 5824 5825 5825 5825 5825 5825 5825 5824 5824 5823 5823 5822 5821 5820 5819 5818 5817 5816 5815 5813 5811 5810 5809 5808 5807 5806
5810 5811 5812 5811 5811 5811 5811 5812 5813 5813 5813 5814 5814 5815 5815 5816 5816 5816 5817 5818 5818 5819 5819 5819 5820 5820 5821 5820 5820 5820 5819 5819 5818 5818 5817 5816 5815 5814 5813 5812 5811 5810 5808 5807 5806 5805 5803 5802 5801
5806 5806 5806 5806 5806 5806 5806 5808 5809 5809 5809 5809 5810 5810 5811 5811 5811 5811 5812 5812 5813 5814 5814 5814 5815 5815 5815 5815 5815 5814 5814 5813 5813 5812 5812 5811 5810 5810 5809 5808 5807 5805 5804 5802 5801 5800 5798 5797 5796
5801 5802 5801 5801 5801 5801 5801 5805 5805 5805 5805 5805 5805 5805 5806 5806 5806 5806 5807 5807 5808 5808 5809 5809 5810 5810 5810 5810 5809 5809 5809 5808 5808 5807 5807 5806 5806 5805 5804 5803 5802 5800 5799 5797 5796 5795 5793 5792 5790
5796 5796 5796 5797 5797 5797 5797 5802 5800 5800 5800 5800 5800 5800 5800 5800 5801 5801 5801 5802 5802 5803 5803 5804 5804 5804 5804 5804 5804 5804 5803 5803 5802 5802 5802 5801 5800 5800 5799 5798 5796 5795 5794 5792 5791 5789 5788 5786 5785